TimeMST,TemperatureF,Dew PointF,Humidity,Sea Level PressureIn,VisibilityMPH,Wind Direction,Wind SpeedMPH,Gust SpeedMPH,PrecipitationIn,Events,Conditions,WindDirDegrees,DateUTC
12:58 AM,69.8,45.3,41,29.77,10.0,WSW,5.8,-,N/A,,Clear,250,2013-10-04 07:58:00
1:58 AM,68.5,41.7,38,29.77,10.0,Calm,Calm,-,N/A,,Clear,0,2013-10-04 08:58:00
2:58 AM,68.5,40.6,36,29.77,10.0,SE,2.3,-,N/A,,Clear,140,2013-10-04 09:58:00
3:58 AM,65.5,40.6,40,29.78,10.0,ENE,3.5,-,N/A,,Clear,60,2013-10-04 10:58:00
4:58 AM,63.0,40.5,44,29.80,10.0,SE,5.8,-,N/A,,Clear,130,2013-10-04 11:58:00
5:58 AM,61.2,40.6,47,29.80,10.0,SE,8.1,-,N/A,,Clear,130,2013-10-04 12:58:00
6:58 AM,61.9,41.7,48,29.82,10.0,SE,6.9,-,N/A,,Clear,140,2013-10-04 13:58:00
7:58 AM,68.5,45.0,43,29.85,10.0,South,3.5,-,N/A,,Clear,180,2013-10-04 14:58:00
8:58 AM,73.9,47.1,38,29.86,10.0,Calm,Calm,-,N/A,,Clear,0,2013-10-04 15:58:00
9:58 AM,75.2,38.1,26,29.88,10.0,NNW,3.5,-,N/A,,Clear,330,2013-10-04 16:58:00
10:58 AM,77.4,39.7,26,29.88,10.0,West,2.3,-,N/A,,Clear,280,2013-10-04 17:58:00
11:58 AM,79.0,40.8,26,29.87,10.0,SW,3.5,-,N/A,,Clear,220,2013-10-04 18:58:00
12:58 PM,81.0,39.2,23,29.85,10.0,South,3.5,-,N/A,,Clear,190,2013-10-04 19:58:00
1:58 PM,83.7,36.5,19,29.83,10.0,Variable,3.5,-,N/A,,Clear,0,2013-10-04 20:58:00
2:58 PM,84.2,35.4,17,29.81,10.0,West,5.8,-,N/A,,Clear,270,2013-10-04 21:58:00
3:58 PM,84.7,36.1,18,29.81,10.0,NW,13.8,20.7,N/A,,Clear,310,2013-10-04 22:58:00
4:26 PM,82.4,41.0,23,29.92,10.0,WNW,12.7,-,N/A,,Clear,300,2013-10-04 23:26:00
4:58 PM,82.2,42.3,24,29.82,10.0,NW,15.0,-,N/A,,Clear,320,2013-10-04 23:58:00
5:58 PM,79.5,42.3,27,29.83,10.0,NW,12.7,-,N/A,,Clear,320,2013-10-05 00:58:00
6:58 PM,76.6,37.8,25,29.86,10.0,NW,17.3,24.2,N/A,,Clear,310,2013-10-05 01:58:00
7:58 PM,74.8,32.4,21,29.88,10.0,WNW,17.3,24.2,N/A,,Clear,300,2013-10-05 02:58:00
8:58 PM,72.9,27.5,19,29.89,10.0,WNW,11.5,-,N/A,,Clear,290,2013-10-05 03:58:00
9:58 PM,71.2,21.7,15,29.91,10.0,West,10.4,-,N/A,,Clear,270,2013-10-05 04:58:00
10:58 PM,70.5,17.8,13,29.91,10.0,West,12.7,-,N/A,,Clear,270,2013-10-05 05:58:00
11:58 PM,67.6,17.8,15,29.93,10.0,West,9.2,-,N/A,,Clear,260,2013-10-05 06:58:00